Florence, SC

10:07 PM EST on December 10, 2016 (GMT -0500)
Florence Regional

Weather History for KFLO - January, 2014

Change the Weather History Date:

Wednesday, January 15, 2014

  Actual Average Record
Temperature  
Mean Temperature 48 °F 45 °F  
Max Temperature 62 °F 55 °F 79 °F (2013)
Min Temperature 34 °F 34 °F 12 °F (1948)
Degree Days  
Heating Degree Days 17 20  
Month to date heating degree days 312 307  
Since 1 July heating degree days 1224 1286  
Cooling Degree Days 0 0  
Month to date cooling degree days 0 0  
Year to date cooling degree days 0 0  
Moisture  
Dew Point 37 °F    
Average Humidity 70    
Maximum Humidity 100    
Minimum Humidity 39    
Precipitation  
Precipitation 0.00 in 0.10 in 2.06 in (1995)
Month to date precipitation 2.01 1.59  
Year to date precipitation 2.01 1.59  
Sea Level Pressure  
Sea Level Pressure 29.94 in    
Wind  
Wind Speed 5 mph (SW)    
Max Wind Speed 18 mph    
Max Gust Speed 23 mph    
Visibility 4 miles    
Events Fog    
T = Trace of Precipitation, MM = Missing Value Source: NWS Daily Summary

Daily Weather History Graph

Daily Weather History Graph

Search for Another Location

Airport or City:

Trip Planner

Search our weather history database for the weather conditions in past years. The results will help you decide how hot, cold, wet, or windy it might be!

Date:

Astronomy

Jan. 15, 2014 Rise Set
Actual Time 7:24 AM EST 5:32 PM EST
Civil Twilight 6:57 AM EST 5:59 PM EST
Nautical Twilight 6:26 AM EST 6:30 PM EST
Astronomical Twilight 5:56 AM EST 7:00 PM EST
Moon 5:26 PM EST (1/15) 6:41 AM EST (1/15)
Length of Visible Light 11h 02m
Length of Day
10h 07m
Full, 100% of the Moon is Illuminated
Jan 15
Full
Jan 15
Full
Jan 24
Last Quarter
Jan 30
New
Feb 6
First Quarter

Hourly Weather History & Observations

Time (EST) Temp. Windchill Dew Point Humidity Pressure Visibility Wind Dir Wind Speed Gust Speed Precip Events Conditions
12:02 AM 41.0 °F - 39.2 °F 93% 29.98 in 0.2 mi Calm Calm - N/A Fog Fog
12:53 AM 37.9 °F - 37.0 °F 97% 29.97 in 0.2 mi Calm Calm - N/A Fog Fog
1:37 AM 37.4 °F - 35.6 °F 93% 29.97 in 0.2 mi Calm Calm - N/A Fog Fog
1:53 AM 36.0 °F - 35.1 °F 97% 29.97 in 0.2 mi Calm Calm - N/A Fog Fog
2:36 AM 35.6 °F - 33.8 °F 93% 29.97 in 0.2 mi Calm Calm - N/A Fog Fog
2:53 AM 35.1 °F - 34.0 °F 96% 29.97 in 0.2 mi Calm Calm - N/A Fog Fog
3:00 AM 35.6 °F 31.7 °F 35.6 °F 100% 29.97 in 0.5 mi SW 4.6 mph - N/A Fog Fog
3:04 AM 33.8 °F 29.6 °F 33.8 °F 100% 29.98 in 2.5 mi SW 4.6 mph - N/A   Clear
3:11 AM 35.6 °F 32.8 °F 33.8 °F 93% 29.98 in 6.0 mi SW 3.5 mph - N/A   Clear
3:19 AM 37.4 °F - 35.6 °F 93% 29.98 in 1.8 mi Calm Calm - N/A   Clear
3:27 AM 39.2 °F - 35.6 °F 87% 29.98 in 0.2 mi Calm Calm - N/A Fog Fog
3:53 AM 37.9 °F 34.4 °F 36.0 °F 93% 29.98 in 0.2 mi WSW 4.6 mph - N/A Fog Fog
4:09 AM 37.4 °F - 35.6 °F 93% 29.97 in 0.5 mi Calm Calm - N/A Fog Fog
4:16 AM 37.4 °F - 35.6 °F 93% 29.97 in 0.2 mi Calm Calm - N/A Fog Fog
4:25 AM 37.4 °F - 37.4 °F 100% 29.97 in 0.2 mi Calm Calm - N/A Fog Fog
4:53 AM 36.0 °F - 34.0 °F 93% 29.96 in 0.2 mi Calm Calm - N/A Fog Fog
5:51 AM 35.6 °F 32.8 °F 33.8 °F 93% 29.96 in 0.2 mi South 3.5 mph - N/A Fog Fog
5:53 AM 34.0 °F - 33.1 °F 96% 29.96 in 0.2 mi Calm Calm - N/A Fog Fog
6:07 AM 35.6 °F - 35.6 °F 100% 29.96 in 0.2 mi Calm Calm - N/A Fog Fog
6:53 AM 37.9 °F - 37.0 °F 97% 29.96 in 0.2 mi Calm Calm - N/A Fog Fog
7:53 AM 37.9 °F - 37.0 °F 97% 29.97 in 0.2 mi Calm Calm - N/A Fog Fog
8:07 AM 39.2 °F - 39.2 °F 100% 29.97 in 0.8 mi Calm Calm - N/A   Mist
8:11 AM 41.0 °F - 39.2 °F 93% 29.97 in 1.2 mi Calm Calm - N/A   Partly Cloudy
8:17 AM 42.8 °F 41.1 °F 39.2 °F 87% 29.97 in 3.0 mi WSW 3.5 mph - N/A   Partly Cloudy
8:53 AM 44.1 °F - 42.1 °F 93% 29.98 in 10.0 mi Calm Calm - N/A   Clear
9:53 AM 48.9 °F - 43.0 °F 80% 29.99 in 10.0 mi SSW 3.5 mph - N/A   Clear
10:53 AM 52.0 °F - 43.0 °F 71% 29.97 in 10.0 mi SSW 4.6 mph - N/A   Clear
11:53 AM 57.0 °F - 41.0 °F 55% 29.94 in 10.0 mi SW 8.1 mph - N/A   Clear
12:53 PM 59.0 °F - 37.0 °F 44% 29.89 in 10.0 mi SW 6.9 mph - N/A   Clear
1:53 PM 61.0 °F - 36.0 °F 39% 29.86 in 10.0 mi SW 5.8 mph - N/A   Clear
2:53 PM 61.0 °F - 37.0 °F 41% 29.85 in 10.0 mi South 8.1 mph - N/A   Clear
3:53 PM 61.0 °F - 35.1 °F 38% 29.85 in 10.0 mi South 8.1 mph - N/A   Clear
4:53 PM 57.9 °F - 36.0 °F 44% 29.85 in 10.0 mi South 4.6 mph - N/A   Clear
5:53 PM 53.1 °F - 36.0 °F 52% 29.85 in 10.0 mi South 6.9 mph - N/A   Clear
6:53 PM 48.0 °F - 36.0 °F 63% 29.86 in 10.0 mi Calm Calm - N/A   Clear
7:53 PM 46.0 °F 43.9 °F 37.0 °F 71% 29.86 in 10.0 mi WSW 4.6 mph - N/A   Partly Cloudy
8:53 PM 45.0 °F 42.6 °F 36.0 °F 71% 29.88 in 10.0 mi WNW 4.6 mph - N/A   Clear
9:53 PM 46.0 °F 39.0 °F 36.0 °F 68% 29.91 in 10.0 mi NNW 17.3 mph 23.0 mph N/A   Clear
10:53 PM 44.1 °F 39.0 °F 35.1 °F 71% 29.93 in 10.0 mi NNW 9.2 mph - N/A   Mostly Cloudy
11:53 PM 43.0 °F 37.2 °F 34.0 °F 71% 29.94 in 10.0 mi NNW 10.4 mph - N/A   Mostly Cloudy